Home > Weather > Amman > Past weeks

Flag for Jordan Weather for the Past 2 Weeks in Amman, Jordan

Now
43 °F

Fog.


Feels Like: 43 °F
Forecast: 48 / 63 °F
Wind: No wind

Location: Amman Airport

Current Time: Feb 12, 2016 at 8:08:33 AM

Latest Report: Feb 12, 2016 at 7:00 AM


Visibility: 1 mi

Pressure: 30.24 "Hg (27.37 "Hg at 816m altitude)

Humidity: 93%

Dew point: 41 °F

Location of AmmanLocation

Historic Weather in Amman — Graph

°F

Amman Temperature Yesterday

Maximum temperature yesterday: 55 °F (at 12:00 PM)
Minimum temperature yesterday: 45 °F (at 2:00 AM)
Average temperature yesterday: 49 °F

High & Low Weather Summary for the Past Weeks

 TemperatureHumidityPressure
High64 °F (Feb 4, 2:00 PM)100% (Feb 7, 6:00 AM)30.42 "Hg (Feb 7, 6:00 AM)
Low28 °F (Jan 28, 7:00 AM)16% (Feb 1, 3:00 PM)29.89 "Hg (Feb 7, 4:00 AM)
Average46 °F64%30.20 "Hg
* Reported Jan 28 7:00 AM — Feb 12 7:00 AM, Amman, Weather by CustomWeather, © 2016

Note: Actual official high and low records may vary slightly from our data, if they occured in-between our weather recording intervals... More about our weather records

Advertising

Amman Weather History for the Previous 24 Hours

 ConditionsComfort  
Time TempWeatherWind HumidityBarometerVisibility
7:00 AM
Fri, Feb 12
43 °FFog.No wind93%30.24 "Hg1 mi
6:00 AM43 °FFog.No wind100%30.24 "Hg1 mi
5:00 AM43 °FFog.No wind100%30.24 "Hg1 mi
4:00 AM45 °FFog.No wind87%30.24 "Hg2 mi
3:00 AM45 °FFog.No wind93%30.24 "Hg2 mi
2:00 AM45 °FFog.No wind87%30.24 "Hg2 mi
1:00 AM46 °FHaze.No wind87%30.24 "Hg2 mi
11:00 PM
Thu, Feb 11
48 °FHaze.No wind82%30.24 "Hg3 mi
10:00 PM50 °FHaze.No wind76%30.24 "Hg3 mi
9:00 PM50 °FPassing clouds.3 mph71%30.24 "Hg3 mi
8:00 PM50 °FPassing clouds.5 mph76%30.24 "Hg3 mi
7:00 PM50 °FPassing clouds.5 mph76%30.24 "Hg3 mi
6:00 PM50 °FPassing clouds.6 mph71%30.24 "Hg3 mi
5:00 PM54 °FPassing clouds.5 mph63%30.24 "Hg4 mi
4:00 PM54 °FScattered clouds.6 mph63%30.24 "Hg4 mi
3:00 PM55 °FBroken clouds.6 mph55%30.21 "Hg4 mi
2:00 PM55 °FScattered clouds.9 mph55%30.21 "Hg3 mi
1:00 PM55 °FScattered clouds.8 mph51%30.21 "Hg3 mi
12:00 PM55 °FScattered clouds.8 mph51%30.21 "Hg3 mi
11:00 AM52 °FScattered clouds.7 mph62%30.21 "Hg3 mi
10:00 AM50 °FScattered clouds.6 mph82%30.24 "Hg2 mi
9:00 AM48 °FScattered clouds.No wind76%30.21 "Hg2 mi
8:00 AM46 °FFog.No wind87%30.21 "Hg1 mi
Weather by CustomWeather, © 2016

See weather overviewHow to use our weather pages